Regional Weather Roundup
Issued by NWS Charleston, SC

Current Version | Previous Version | Graphics & Text | Print | Product List | Glossary On
Versions: 1 2 3 4 5 6 7 8 9 10 11 12 13 14 15 16 17 18 19 20 21 22 23 24 25 26 27 28 29 30 31 32 33 34 35 36 37 38 39 40 41 42 43 44 45 46 47 48 49 50
982
ASUS42 KCHS 061927
RWRCHS

REGIONAL WEATHER ROUNDUP
NATIONAL WEATHER SERVICE CHARLESTON SC
200 PM EST SAT FEB 06 2016

NOTE: "FAIR" INDICATES FEW OR NO CLOUDS BELOW 12,000 FEET WITH NO
SIGNIFICANT WEATHER AND/OR OBSTRUCTIONS TO VISIBILITY.

NOT ALL STATIONS ARE QUALITY CONTROLLED BY THE NATIONAL
WEATHER SERVICE. USE DATA WITH CAUTION...ESPECIALLY
DEWPOINT OBSERVATIONS.

NOTICE: OBSERVATIONS FOR THE SAVANNAH-HILTON HEAD INTERNATIONAL AIRPORT
/KSAV/ HAVE BEEN TEMPORARILY REMOVED DUE TO AN ERRONEOUS TEMPERATURE
SENSOR. THE OBSERVATION WILL BE REINTRODUCED ONCE REPAIRS ARE COMPLETE.

SCZ027-030-031-034>040-042>050-062000-
...SOUTHEAST SOUTH CAROLINA...

CITY           SKY/WX    TMP DP  RH WIND       PRES   REMARKS
N CHARLESTON   CLOUDY    54  30  40 NE10      30.26F
WATERFRONT PRK   N/A     52  38  58 E13       30.12F
MOUNT PLEASANT FAIR      52  36  54 E7        30.25F
JOHNS ISLAND   CLOUDY    52  36  54 NE10      30.25F
PINOPOLIS        N/A     52  30  43 NE5       30.23F
MONCKS CORNER  CLOUDY    48  23  37 N7        30.26F
SUMMERVILLE    CLOUDY    52  30  43 N9        30.28F
BEAUFORT MCAS  CLOUDY    54  29  38 N8        30.25F
BEAUFORT ARPT  CLOUDY    54  32  43 NE9       30.24F HAZE
HILTON HEAD IS PTSUNNY   50  34  53 NE10      30.25F
WALTERBORO     CLOUDY    54  30  40 N9        30.26F
ALLENDALE      CLOUDY    48  25  40 CALM      30.27F

...SOUTHERN MIDLANDS AND PEE DEE...

CITY           SKY/WX    TMP DP  RH WIND       PRES   REMARKS
GEORGETOWN     NOT AVBL
KINGSTREE      NOT AVBL
ORANGEBURG     LGT RAIN  48  26  42 NE9       30.27F
BARNWELL       CLOUDY    48  28  46 NE13      30.27F
AIKEN          MOCLDY    48  21  34 NE10G16   30.29F
MANNING        CLOUDY    50  23  34 N9        30.28F
COLUMBIA       CLOUDY    51  20  29 E7        30.29F
SUMTER         PTSUNNY   49  24  36 NE14      30.27F
FLORENCE       PTSUNNY   49  24  37 NE8       30.30F
MYRTLE BEACH   PTSUNNY   50  27  40 NE13      30.30
N MYRTLE BEACH LGT RAIN  49  28  44 NE9       30.28F

$$

GAZ063-065-086>088-099>101-113>116-118-119-134>141-150-062000-
...SOUTHEAST GEORGIA...

CITY           SKY/WX    TMP DP  RH WIND       PRES   REMARKS
SAVANNAH ARPT  LGT RAIN  49  36  61 NE8       30.26F
HUNTER AAF     LGT RAIN  48  37  66 VRB5      30.23F
FORT STEWART   DRIZZLE   50  32  50 NE9       30.22F
STATESBORO     CLOUDY    49  34  54 N6        30.25F
SYLVANIA       LGT RAIN  48  38  68 N5        30.27F
CLAXTON        CLOUDY    49  35  58 N5        30.25F

...CSRA...CENTRAL AND FAR SOUTHEAST GEORGIA...

CITY           SKY/WX    TMP DP  RH WIND       PRES   REMARKS
THOMSON        PTSUNNY   53  27  36 NE7       30.30F
AUGUSTA-BUSH   CLOUDY    50  24  36 E12       30.27F
AUGUSTA-DANIEL PTSUNNY   54  22  28 NE10      30.26F
SWAINSBORO     CLOUDY    46  30  53 N5        30.26F
VIDALIA        LGT RAIN  45  36  70 CALM      30.27S
EASTMAN        CLOUDY    46  36  67 CALM      30.29S
HAZLEHURST     CLOUDY    45  41  86 N5        30.25S
ALMA           CLOUDY    51  31  46 VRB5      30.24F
WAYCROSS       CLOUDY    55  38  53 NE7       30.22F
JESUP          CLOUDY    54  37  54 NE7       30.23F
BAXLEY         CLOUDY    50  34  53 N7        30.23F
BRUNSWICK      CLOUDY    52  43  71 NE13G22   30.21F
SAINT SIMONS   CLOUDY    52  44  74 NE17G26   30.20F

$$

SCZ027-028-034-036>038-045-046-048>050-GAZ119-141-062000-
...LAKE AND SUPPLEMENTAL COASTAL OBSERVATIONS...

STATION/POSITION TIME  TEMP    WIND        PRES    WAVE   SWELL
                       AIR SEA DIR/SP/G            HT/PER HT/PER/DIR
                 (UTC) (F)     (DEG/KT/KT) (MB)    (FT/S) (FT/S/D)
WINYAH BAY       1845   48      60/ 10     1024.0F
LAKE MURRAY      1800   49      40/  2/  6 1026.1F
ACE BASIN NERRS  1800   53      60/  5     1025.0F
FORT PULASKI     1900   49 54   50/ 11/ 13 1024.6F
SAPELO ISLAND    1900   52      30/ 14     1023.0F

$$

ANZ835-935-AMZ111-154-330-350-352-354-370-450-454-472-062000-
...C-MAN AND BUOY OBSERVATIONS...

STATION/POSITION TIME  TEMP    WIND        PRES    WAVE   SWELL
                       AIR SEA DIR/SP/G            HT/PER HT/PER/DIR
                 (UTC) (F)     (DEG/KT/KT) (MB)    (FT/S) (FT/S/D)
BUOY 41004       1850   54 65   30/ 21/ 27 1023.3F   7/ 6   3/10
BUOY 41008       1850   53 56   40/ 21/ 25 1022.8F   7/ 6   2/ 80/10
FOLLY BEACH CMAN 1900   49      60/ 18/ 21 1024.8F
CAPERS NEARSHORE 1808   49      60/ 21/ 27 1024.5F
FRIPP NEARSHORE  1800   50      50/ 19/ 23 1024.1F


STATION/POSITION TIME  TEMP    WIND        PRES    WAVE   SWELL
                       AIR SEA DIR/SP/G            HT/PER HT/PER/DIR
                 (UTC) (F)     (DEG/KT/KT) (MB)    (FT/S) (FT/S/D)
5E ST. MARYS GA  1821      57                N/A     6/ 7   2/100/11
FRYING PAN BUOY  1900   52 68   30/ 19/ 23 1024.7F
BUOY 41025       1850   52 72   30/ 16/ 19 1026.1F   6/11   5/ 60/11
CAPE LOOKOUT NC  NOT AVBL
BUOY 41002       1850   61 69   80/ 12/ 16   N/A     9/11   8/ 30/11
BUOY 41010       1820   69 74              1020.5F
ST AUGUSTINE FL  1900   56 59  360/ 19/ 21 1021.8F


$$




USA.gov is the U.S. government's official web portal to all federal, state and local government web resources and services.